Погода в Старом Акшино

Россия / Республика Мордовия     54°17′26″N   44°42′55″E
темп.,
°C
ветер,
м/с
пор.,
м/с
влажн.,
%
обл.,
%
осадки,
мм/ч
давл.,
гПа
погр.,
м
16 сентября, чт
чт1600:00+8зсз4784100 0.0 1011487
03:00+7зсз4789100 0.1 1011462
06:00+7зсз4690100 0.1 1012509
09:00+7зсз5793100 1.1 1013522
12:00+10ссз467095 0.4 10141238
15:00+11ссз6758100 0.5 10151596
18:00+8ссз4765100 0.0 1016592
21:00+8сз3662100 0.0 1017353
17 сентября, пт
пт1700:00+7сз2561100 0.0 1018292
03:00+7зсз3664100 0.0 1018340
06:00+6сз3664100 0.0 1018439
09:00+7сз4559100 0.0 10181097
12:00+8сз3454100 0.1 10181257
15:00+9сз4449100 0.1 10181325
18:00+8сз355780 0.0 1018160
21:00+4ссз367260 0.0 1019107
18 сентября, сб
сб1800:00+2с35725 0.0 102178
03:00+1ссз33785 0.0 102245
06:00+1ссз34855 0.0 102379
09:00+6с45665 0.0 1023669
12:00+9с545486 0.0 10231298
15:00+9ссв445246 0.0 10231253
18:00+7ссв345788 0.0 1024139
21:00+8св3453100 0.0 1025136
19 сентября, вс
вс1900:00+4св3671100 0.0 1026150
03:00+2всв3573100 0.0 102682
06:00+1всв337697 0.0 102753
09:00+6в455353 0.0 1027643
12:00+10в4440100 0.0 10261131
15:00+11в4537100 0.0 10241211
18:00+8в4748100 0.0 1024168
21:00+6в51154100 0.0 1024264
20 сентября, пн
пн2000:00+6в51254100 0.0 1024331
03:00+6в61256100 0.0 1024388
06:00+5в61369100 0.3 1024496
09:00+4в81586100 1.8 1024548
12:00+5в81590100 2.9 1024561
15:00+5в81591100 5.3 1024697
18:00+5в81591100 1.3 1024695
21:00+5вюв81592100 3.3 1024646